481  
ASUS43 KIND 211409  
RWRIN  
 
WEATHER ROUNDUP FOR INDIANA  
NATIONAL WEATHER SERVICE INDIANAPOLIS IN  
1000 AM EDT THU JUN 21 2018  
 
NOTE: "FAIR" INDICATES FEW OR NO CLOUDS BELOW 12,000 FEET WITH NO  
SIGNIFICANT WEATHER AND/OR S TO VISIBILITY
.  
 
* - STATION DOES NOT REPORT WEATHER SUCH AS PRECIPITATION OR FOG.
 
 
+ - STATION NOT QUALITY CONTROLLED BY THE NATIONAL WEATHER SERVICE.  
USE DATA WITH CAUTION...ESPECIALLY DEWPOINT AND RELATIVE  
HUMIDITY OBSERVATIONS.  
 
INZ001>003-010>013-019-020-211500-  
NORTHWEST INDIANA  
 
CITY SKY/WX TMP DP RH WIND PRES REMARKS
 
GARY /AIRPORT/ HVY RAIN 70 68 94 CALM 29.79S  
KNOX *+ CLOUDY 68 63 83 E9 29.79S  
LA PORTE + DRIZZLE 67 62 84 E9 29.81S  
MONTICELLO + RAIN 68 67 96 E3 29.76F  
RENSSELAER + RAIN N/A N/A N/A E9 29.77F  
VALPARAISO RAIN 68 66 93 E8 29.79S FOG  
 

 
 
LMZ046-743>745-211500-  
SOUTHERN LAKE MICHIGAN  
 
STATION/POSITION TIME TEMP WIND PRES WAVE
 
AIR SEA DIR/SP/G HT  
(UTC) (F) (DEG/KT/KT) (MB) (FT)  
BURNS HARBOR 1340 69 130/ 6/ 17 1009.1S  
MICHIGAN CITY 1340 67 90/ 10/ 12 N/A  
5NW MICH CITY 1400 68 67 120/ 12/ 16 N/A 2  
 

 
 
INZ004-005-014>016-021>024-211500-  
NORTH CENTRAL INDIANA  
 
CITY SKY/WX TMP DP RH WIND PRES REMARKS
 
GOSHEN CLOUDY 69 61 75 E14G20 29.82S  
LOGANSPORT + CLOUDY 68 66 94 E8 29.80S FOG  
PERU/GRISSOM CLOUDY 68 68 100 E9 29.79S FOG  
ROCHESTER + CLOUDY 72 63 73 E8 29.80F  
SOUTH BEND CLOUDY 68 60 75 E13G24 29.82R  
WARSAW + CLOUDY 68 59 73 E10G23 29.81F  
 

 
 
INZ006>009-017-018-025>027-211500-  
NORTHEAST INDIANA  
 
CITY SKY/WX TMP DP RH WIND PRES REMARKS
 
ANGOLA *+ FAIR 68 61 77 E14G20 29.85F  
AUBURN + PTSUNNY 68 61 77 E7 29.85F  
FORT WAYNE CLOUDY 69 61 75 E16 29.83F  
HUNTINGTON + CLOUDY 67 62 81 E7G16 29.81F  
KENDALLVILLE + CLOUDY N/A N/A N/A E7 29.85F  
 

 
 
INZ028-029-035-036-043>045-051>053-211500-  
WEST CENTRAL INDIANA  
 
CITY SKY/WX TMP DP RH WIND PRES REMARKS
 
CRAWFORDSVL + LGT RAIN 68 68 100 S7 29.79R  
GREENCASTLE + LGT RAIN 70 68 94 CALM 29.80S  
LAFAYETTE HVY RAIN 70 70 100 W3 29.76S VSB 1/4  
TERRE HAUTE LGT RAIN 72 70 93 S6 29.79S FOG  
 

 
 
INZ030>032-037>040-046>048-054>057-064-065-211500-  
CENTRAL INDIANA  
 
CITY SKY/WX TMP DP RH WIND PRES REMARKS
 
ANDERSON CLOUDY 72 72 100 E6 29.80F  
COLUMBUS CLOUDY 70 66 88 CALM 29.81F  
FISHERS *+ CLOUDY 72 72 100 SW7 29.79F  
FRANKFORT + DRIZZLE N/A N/A N/A W7 29.79S  
GREENWOOD *+ CLOUDY 70 68 94 SW8 29.81R  
INDIANAPOLIS LGT RAIN 72 68 87 SW12 29.79R  
-EAGLE CREEK CLOUDY 73 67 81 SW6 29.78S  
KOKOMO + CLOUDY 69 68 96 E10 29.80S FOG  
MARION + CLOUDY 68 68 99 CALM 29.81S FOG  
MT COMFORT *+ CLOUDY 72 72 100 SW8 29.80S  
SHELBYVILLE RAIN 72 68 87 SW8 29.80R FOG  
ZIONSVILLE + CLOUDY 71 70 95 SW10 29.79S  
 

 
 
INZ033-034-041-042-049-050-058-059-211500-  
EAST CENTRAL INDIANA  
 
CITY SKY/WX TMP DP RH WIND PRES REMARKS
 
MUNCIE CLOUDY 71 69 93 E10 29.80F FOG  
RICHMOND + CLOUDY 70 70 100 SE5 29.83S  
 

 
 
INZ060-061-067>069-081>083-085>088-211500-  
SOUTHWEST INDIANA  
 
CITY SKY/WX TMP DP RH WIND PRES REMARKS
 
EVANSVILLE CLOUDY 72 71 97 SW8 29.81S  
HUNTINGBURG + LGT RAIN 71 70 96 S6 29.81F  
WASHINGTON + RAIN N/A N/A N/A SW6 29.80S  
 

 
 
INZ062-063-066-070>080-084-089>092-211500-  
SOUTH CENTRAL AND SOUTHEAST INDIANA  
 
CITY SKY/WX TMP DP RH WIND PRES REMARKS
 
BATESVILLE + CLOUDY 72 70 94 CALM 29.82S FOG  
BEDFORD + LGT RAIN 72 68 88 SW6 29.80F  
BLOOMINGTON LGT RAIN 72 71 97 SW6 29.80S FOG  
FRENCH LICK *+ CLOUDY 70 N/A N/A CALM 29.82F  
MADISON *+ PTSUNNY 72 70 94 CALM 29.84F  
NORTH VERNON + RAIN 70 68 94 CALM 29.82S  
SEYMOUR + LGT RAIN 72 72 100 S3 29.81S  
 

 
 
 
 
CLICK HERE TO GO TO PREVIOUS BULLETINS.

The Nexlab IN Page Main Text Page